Stations météo

Publicité
Sete, France (7641): Température de l'air & dewpoint: 15.10.2017 19:00:00 - 21.10.2017 19:00:00 (CEST)Sete, France (7641): Vitesse du vent & gusts: 15.10.2017 19:00:00 - 21.10.2017 19:00:00 (CEST)Sete, France (7641): Direction du vent: 15.10.2017 19:00:00 - 21.10.2017 19:00:00 (CEST)Sete, France (7641): reduced air pressure: 15.10.2017 19:00:00 - 21.10.2017 19:00:00 (CEST)Sete, France (7641): visibility: 15.10.2017 19:00:00 - 21.10.2017 19:00:00 (CEST)Sete, France (7641): Quantités de précipitations: 15.10.2017 19:00:00 - 21.10.2017 19:00:00 (CEST)
Date & Time tt [°C] td [°C] ff [km/h] ff [knt] fx [km/h] fx [knt] dd ppp [hPa] vv [km] rr [mm]
21.10.2017 19:00:00 17,1 10,5 21 12 49 26 NNW 1020,9 - 0,0
21.10.2017 18:00:00 17,4 14,9 11 6 36 20 NNW 1020,1 - 0,0
21.10.2017 17:00:00 18,1 17,3 9 5 16 9 SSW 1019,4 5 0,0
21.10.2017 16:00:00 18,7 17,2 11 6 21 11 SSW 1019,7 - 0,0
21.10.2017 15:00:00 20,1 17,7 7 4 14 8 S 1019,7 - 0,0
21.10.2017 14:00:00 18,9 17,0 5 3 13 7 ESE 1020,5 1,1 0,0
21.10.2017 13:00:00 18,4 17,1 7 4 19 11 E 1021,1 - 0,0
21.10.2017 12:00:00 18,4 16,7 9 5 26 14 ENE 1021,1 - 0,0
21.10.2017 11:00:00 18,3 17,1 10 6 20 11 ENE 1020,9 1,1 0,0
21.10.2017 10:00:00 18,0 17,5 12 6 16 9 NE 1021,1 - 0,0
21.10.2017 09:00:00 17,8 17,3 7 4 15 8 NE 1020,5 - 0,0
21.10.2017 08:00:00 17,9 17,4 6 4 19 11 E 1019,9 5 0,0
21.10.2017 07:00:00 18,1 17,5 9 5 21 11 E 1019,8 - 0,0
21.10.2017 06:00:00 18,2 17,6 10 6 22 12 E 1019,2 - 0,0
21.10.2017 05:00:00 18,2 17,6 11 6 24 13 E 1019,0 5 0,0
21.10.2017 04:00:00 18,1 17,3 10 6 21 12 E 1019,3 - 0,0
21.10.2017 03:00:00 18,3 17,5 6 4 16 8 E 1019,7 - 0,0
21.10.2017 02:00:00 18,3 17,3 3 2 6 4 NNE 1019,9 - 0,0
21.10.2017 01:00:00 18,3 17,1 2 1 4 2 N 1020,1 - 0,0
21.10.2017 00:00:00 18,4 17,2 5 3 14 7 S 1020,3 - 0,0
20.10.2017 23:00:00 18,4 17,2 6 4 11 6 S 1020,2 - 0,0
20.10.2017 22:00:00 18,3 17,1 6 3 11 6 S 1020,1 - 0,0
20.10.2017 21:00:00 18,2 16,9 4 2 11 6 SSE 1019,8 - 0,0
20.10.2017 20:00:00 18,3 17,1 3 2 10 5 ESE 1019,8 8 0,0
20.10.2017 19:00:00 18,4 16,7 4 2 10 6 ESE 1019,0 - 0,0
20.10.2017 18:00:00 19,0 16,8 5 3 12 7 SSE 1018,9 - 0,0
20.10.2017 17:00:00 19,0 16,4 7 4 15 8 ESE 1019,0 - 0,0
20.10.2017 16:00:00 19,9 16,1 5 3 14 8 ESE 1018,9 - 0,0
20.10.2017 15:00:00 20,5 16,1 5 3 14 8 ESE 1018,8 - 0,0
20.10.2017 14:00:00 19,9 15,5 5 3 11 6 E 1019,0 8 0,0
20.10.2017 13:00:00 19,5 15,4 5 3 10 6 E 1019,3 - 0,0
20.10.2017 12:00:00 19,5 15,2 4 2 10 5 ESE 1019,1 - 0,0
20.10.2017 11:00:00 19,3 15,0 6 3 14 8 ESE 1018,5 10 0,0
20.10.2017 10:00:00 19,0 14,7 5 3 16 9 E 1018,2 - 0,0
20.10.2017 09:00:00 17,2 12,9 8 4 23 12 NE 1017,7 - 0,0
20.10.2017 08:00:00 17,2 12,3 15 8 27 15 NNE 1016,7 - 0,0
20.10.2017 07:00:00 16,8 12,5 17 9 28 15 N 1016,4 - 0,0
20.10.2017 06:00:00 16,3 13,2 17 9 27 15 NNE 1015,8 - 0,0
20.10.2017 05:00:00 17,0 14,5 12 6 28 15 ENE 1015,4 5 1,0
20.10.2017 04:00:00 17,8 12,9 16 9 26 14 NE 1015,4 - 0,0
20.10.2017 03:00:00 17,7 12,6 16 9 29 15 NE 1015,3 - 0,0
20.10.2017 02:00:00 17,5 12,8 18 10 29 16 NNE 1014,6 - 0,0
20.10.2017 01:00:00 17,8 13,1 20 11 32 17 NE 1014,2 - 0,0
20.10.2017 00:00:00 18,2 15,1 15 8 35 19 E 1013,6 - 0,0
19.10.2017 23:00:00 18,3 15,2 18 10 40 21 E 1013,8 - 0,0
19.10.2017 22:00:00 18,3 15,7 16 9 34 19 E 1013,4 - 0,0
19.10.2017 21:00:00 18,5 16,1 16 8 45 24 E 1013,4 - 0,0
19.10.2017 20:00:00 18,6 16,0 19 10 41 22 E 1012,9 6 0,0
19.10.2017 19:00:00 18,3 16,3 19 10 36 19 E 1012,2 - 0,0
19.10.2017 18:00:00 18,2 16,5 18 10 46 25 E 1012,0 - 0,2
19.10.2017 17:00:00 18,6 16,7 24 13 54 29 E 1011,3 6 0,0
19.10.2017 16:00:00 18,5 16,7 28 15 62 34 ESE 1011,3 - 0,0
19.10.2017 15:00:00 18,4 16,9 30 16 56 30 ESE 1011,9 - 0,0
19.10.2017 14:00:00 18,4 16,9 28 15 54 29 ESE 1012,2 5 0,0
19.10.2017 13:00:00 18,6 16,7 29 16 58 31 ESE 1012,7 - 0,0
19.10.2017 12:00:00 18,1 16,9 22 12 57 31 E 1013,1 - 2,4
19.10.2017 11:00:00 18,1 16,6 27 15 60 32 ESE 1012,7 - 0,4
19.10.2017 10:00:00 18,2 16,5 30 16 64 35 ESE 1012,7 - 0,8
19.10.2017 09:00:00 17,9 16,8 21 12 46 25 E 1012,3 - 0,0
19.10.2017 08:00:00 15,9 14,9 18 10 25 13 NNE 1012,6 - 0,0
19.10.2017 07:00:00 15,9 14,9 8 5 40 22 E 1012,8 - 5,2
19.10.2017 06:00:00 15,9 14,1 34 18 54 29 S 1013,3 10 5,2
19.10.2017 05:00:00 18,0 16,2 27 15 60 32 ESE 1012,5 - 0,0
19.10.2017 04:00:00 17,9 16,4 23 13 61 33 E 1012,3 - 0,0
19.10.2017 03:00:00 17,7 16,2 29 15 60 33 ESE 1012,9 - 0,2
19.10.2017 02:00:00 17,7 16,7 23 13 56 30 E 1013,0 - 1,2
19.10.2017 01:00:00 17,9 16,9 28 15 56 30 ESE 1013,6 - 1,0
19.10.2017 00:00:00 18,1 16,8 29 15 54 29 ESE 1013,8 - 0,0
18.10.2017 23:00:00 18,0 16,8 24 13 53 28 ESE 1014,0 - 0,0
18.10.2017 22:00:00 18,0 16,8 29 16 56 30 ESE 1013,1 - 0,0
18.10.2017 21:00:00 18,1 16,9 27 15 58 31 ESE 1013,7 - 0,0
18.10.2017 20:00:00 18,2 16,9 25 13 67 36 ESE 1013,7 6 0,0
18.10.2017 19:00:00 18,0 16,8 26 14 54 29 ESE 1013,0 - 0,0
18.10.2017 18:00:00 18,1 16,8 28 15 56 30 ESE 1013,2 - 0,0
18.10.2017 17:00:00 18,2 16,7 25 14 51 28 ESE 1013,8 6 0,0
18.10.2017 16:00:00 18,2 16,7 22 12 50 27 ESE 1014,1 - 0,0
18.10.2017 15:00:00 18,3 16,6 24 13 50 27 ESE 1014,1 - 0,0
18.10.2017 14:00:00 18,1 16,4 27 15 58 31 ESE 1015,2 6 0,0
18.10.2017 13:00:00 18,3 16,6 29 16 64 35 ESE 1015,8 - 0,0
18.10.2017 12:00:00 17,9 16,6 29 16 60 33 ESE 1016,3 - 0,0
18.10.2017 11:00:00 17,8 16,5 29 16 61 33 ESE 1016,5 - 0,0
18.10.2017 10:00:00 17,8 16,8 29 16 56 30 ESE 1016,7 - 0,0
18.10.2017 09:00:00 17,7 16,7 28 15 52 28 ESE 1017,4 - 0,0
18.10.2017 08:00:00 17,6 16,6 22 12 46 25 ESE 1016,9 10 0,0
18.10.2017 07:00:00 17,6 16,8 19 10 42 23 E 1017,0 - 0,0
18.10.2017 06:00:00 17,6 17,0 18 10 44 24 ESE 1017,4 10 0,0
18.10.2017 05:00:00 17,7 17,1 22 12 41 22 ESE 1018,1 - 0,0
18.10.2017 04:00:00 17,8 17,2 18 10 42 23 E 1018,4 - 0,0
18.10.2017 03:00:00 17,8 17,2 21 11 39 21 ESE 1019,1 - 0,0
18.10.2017 02:00:00 17,8 17,0 16 9 33 18 ESE 1019,7 - 0,0
18.10.2017 01:00:00 17,8 17,0 13 7 36 19 SE 1019,9 - 0,0
18.10.2017 00:00:00 17,9 17,1 16 9 34 18 ESE 1020,3 - 0,0
17.10.2017 23:00:00 17,8 17,0 17 9 32 17 ESE 1020,6 - 0,0
17.10.2017 22:00:00 17,7 16,9 16 9 31 17 ESE 1020,8 - 0,0
17.10.2017 21:00:00 17,6 17,0 12 7 27 15 E 1020,9 - 0,0
17.10.2017 20:00:00 17,5 16,5 10 6 24 13 E 1021,1 - 0,0
17.10.2017 19:00:00 17,6 16,3 11 6 29 16 E 1021,1 - 0,0
17.10.2017 18:00:00 17,8 16,0 12 6 30 16 E 1021,4 - 0,0
17.10.2017 17:00:00 18,0 15,8 13 7 31 17 E 1021,9 5 0,0
17.10.2017 16:00:00 18,2 15,8 13 7 27 15 E 1022,4 - 0,0
17.10.2017 15:00:00 18,3 15,0 13 7 27 15 E 1022,8 - 0,0
17.10.2017 14:00:00 17,7 14,8 12 6 28 15 E 1023,7 6 0,0
17.10.2017 13:00:00 17,2 14,7 13 7 35 19 E 1024,6 - 0,0
17.10.2017 12:00:00 16,2 14,0 15 8 30 16 ENE 1024,8 - 0,0
17.10.2017 11:00:00 15,7 13,7 13 7 26 14 ENE 1025,2 - 0,0
17.10.2017 10:00:00 14,9 14,4 14 8 26 14 NNE 1025,2 - 0,0
17.10.2017 09:00:00 15,1 14,8 16 9 27 15 NE 1025,0 - 0,0
17.10.2017 08:00:00 15,1 14,8 17 9 27 14 NE 1024,8 - 0,0
17.10.2017 07:00:00 15,4 14,9 15 8 25 14 NE 1025,1 - 0,0
17.10.2017 06:00:00 15,2 14,7 15 8 26 14 NNE 1025,1 - 0,0
17.10.2017 05:00:00 15,4 14,8 14 8 24 13 NE 1025,2 - 0,0
17.10.2017 04:00:00 15,5 14,7 13 7 22 12 NNE 1025,5 - 0,0
17.10.2017 03:00:00 16,1 15,3 12 7 18 10 NNE 1026,1 - 0,0
17.10.2017 02:00:00 16,5 15,4 9 5 15 8 N 1026,5 - 0,0
17.10.2017 01:00:00 17,1 15,6 6 3 11 6 ENE 1026,8 - 0,0
17.10.2017 00:00:00 17,4 16,1 5 3 12 6 ENE 1026,9 - 0,0
16.10.2017 23:00:00 17,5 16,0 5 3 11 6 ENE 1026,8 - 0,0
16.10.2017 22:00:00 17,8 16,0 4 2 12 7 SE 1026,8 - 0,0
16.10.2017 21:00:00 17,5 15,7 3 2 10 5 ESE 1026,9 - 0,0
16.10.2017 20:00:00 17,5 15,7 4 2 13 7 E 1026,8 15 0,0
16.10.2017 19:00:00 18,0 15,8 4 2 11 6 ENE 1026,8 - 0,0
16.10.2017 18:00:00 18,3 15,7 8 5 21 11 E 1026,6 - 0,0
16.10.2017 17:00:00 18,9 15,9 8 4 18 10 E 1026,8 - 0,0
16.10.2017 16:00:00 19,9 16,1 9 5 21 11 E 1027,2 - 0,0
16.10.2017 15:00:00 20,3 16,5 10 6 22 12 E 1027,4 - 0,0
16.10.2017 14:00:00 19,5 16,2 11 6 24 13 E 1028,1 - 0,0
16.10.2017 13:00:00 19,9 16,1 11 6 25 14 E 1028,4 - 0,0
16.10.2017 12:00:00 18,8 15,8 11 6 23 13 ENE 1028,8 - 0,0
16.10.2017 11:00:00 17,9 15,9 10 6 24 13 ENE 1028,7 - 0,0
16.10.2017 10:00:00 17,1 15,6 12 7 25 13 NE 1028,5 - 0,0
16.10.2017 09:00:00 16,6 15,6 14 8 23 12 NE 1027,8 - 0,0
16.10.2017 08:00:00 16,3 15,3 13 7 20 11 NNE 1027,2 4,0 0,0
16.10.2017 07:00:00 16,3 15,3 13 7 22 12 NNE 1027,0 - 0,0
16.10.2017 06:00:00 16,4 15,4 14 8 24 13 NE 1027,0 - 0,0
16.10.2017 05:00:00 16,3 15,2 13 7 24 13 NNE 1026,9 15 0,0
16.10.2017 04:00:00 16,6 15,3 14 8 22 12 NNE 1027,0 - 0,0
16.10.2017 03:00:00 17,4 16,1 9 5 20 11 ENE 1027,5 - 0,0
16.10.2017 02:00:00 17,9 16,8 10 5 21 11 ESE 1027,6 - 0,0
16.10.2017 01:00:00 18,0 17,0 10 6 22 12 ESE 1027,8 - 0,0
16.10.2017 00:00:00 18,1 16,9 9 5 18 10 ESE 1028,0 - 0,0
15.10.2017 23:00:00 18,1 16,6 8 4 19 10 ESE 1027,9 - 0,0
15.10.2017 22:00:00 18,2 16,4 9 5 19 10 ESE 1027,8 - 0,0
15.10.2017 21:00:00 18,2 16,2 9 5 19 11 ESE 1028,0 - 0,0
15.10.2017 20:00:00 18,3 16,1 8 4 21 11 SE 1027,9 20 0,0
15.10.2017 19:00:00 18,2 16,2 9 5 21 11 SE 1027,3 - 0,0

tt = Température de l'air
td = dewpoint
ff = Vitesse du vent
fx = gusts
dd = Direction du vent
ppp = reduced air pressure
vv = visibility
rr = Quantités de précipitations

stations d'obs. à proximité